Showing default

JAY-D2, 62665

Orbit data source: Space-Track

JAY-D2, 62665 is a Canadian payload satellite in SSO that was launched on Tue, 14 Jan 2025 UTC via an FALCON 9 launch vehicle from the Air Force Western Test Range (AFWTR). Payload-class satellites include a variety of spacecraft equipped with specific instruments for various scientific and technological missions. These include communications satellites like Starlink; space stations such as the ISS; scientific satellites like the Hubble; Earth observation satellites from companies like Planet Labs, Umbra, and HawkEye 360; GPS; miniature CubeSats for education and research; and military/defense satellites.

Loading next visibility...
Identifier
62665, 2025-009BJ
Orbit
SSO
Country
Flag of CACA
Related business
Manufacturer
UTIAS-SFL
Mission
Operational Commercial Imaging
Bus & Motor
DEFIANT, Unknown motor
Mass
~35 kg wet, ~35 kg dry
Launch date (UTC)
2025-01-14 (2 years ago)
Launch vehicle
FALCON 9
Launch site
Air Force Western Test Range (AFWTR)
Object type
Payload
Rocket body
Debris
Shape & HBR
Box + 2 Pan, 0.4 m
Radar Cross Section
0.165 m², Medium (>0.1 m² and < 1m²)

Expand to show TLE details & history
Last TLE update: 12 hours ago

TLE from 12 hours ago
0 JAY-D2
1 62665U 25009BJ  26237.97898103  .00003264  00000-0  14285-3 0  9994
2 62665  97.3855 315.2893 0005950  88.8574 271.3345 15.22737722 89352
Epoch: 2026-08-25T23:29Z
TLE epoch observation values (Epoch: 2026-08-25T23:29:43.960Z)
Latitude
0.00007°
Longitude
-11.38245°
Altitude
500.589 km
Speed
7.614 km/s
True Right ascension
21h 01m 09s
True Declination
0° 00' 00"
Sunlit
Object was in full shadow at epoch
Visualization orbit readout
Latitude
Unknown
Longitude
Unknown
Altitude
Unknown
Speed
Unknown
Apparent Right ascension
Unknown
Apparent Declination
Unknown
Sunlit
N/A
Visualization observer readout
Local Sidereal Time
02:59:01
Azimuth
Unknown
Elevation
Unknown
Doppler factor
Unknown
Orbital elements
Apogee altitude
498.638 km
Perigee altitude
490.459 km
Semi-major axis
6,872.685 km
Eccentricity
0.0006
Inclination
97.3855°
RAAN
315.2893°
Arg. of periapsis
88.8574°
True anomaly
271.26634°
Mean anomaly
271.3345°
Eccentric anomaly
271.30042°
Mean motion
3.80937 °/min
Orbital period
94.5 mins
BSTAR
0.00014285
Loading maneuver chart data...
Computing Atmospheric mass density...
Loading historical data...
Loading historical data...
Loading historical data...
Loading historical data...
Loading historical data...
Loading historical data...
Loading historical data...

Documentation

Showing up to 5 results
|